Flag for Germany Weather past 2 weeks in Bielefeld, North Rhine-Westphalia, Germany

Now
64 °F

Passing clouds.


Feels Like: 64 °F
Forecast: 62 / 83 °F
Wind: 2 mph from Southeast

Location: Bad Lippspringe

Current Time: Aug 1, 2014 at 5:59:50 AM

Latest Report: Aug 1, 2014 at 5:00 AM


Visibility: 14 mi

Pressure: 29.92 "Hg

Humidity: 67%

Dew point: 53 °F

Location of BielefeldLocation

Historic Weather in Bielefeld — Graph

°F

Bielefeld temperature yesterday

Maximum temperature yesterday: 76 °F (at 6:00 PM)
Minimum temperature yesterday: 59 °F (at 6:00 AM)
Average temperature yesterday: 66 °F

Past Weeks' High & Low Weather Summary

 TemperatureHumidityPressure
High90 °F (Jul 19, 4:00 PM)98% (Jul 26, 5:00 AM)30.18 "Hg (Jul 26, 5:00 AM)
Low56 °F (Jul 17, 6:00 AM)28% (Jul 19, 3:00 PM)29.74 "Hg (Jul 29, 7:00 PM)
Average70 °F71%29.94 "Hg
* Reported Jul 17 4:00 AM — Aug 1 4:00 AM, Bielefeld, Weather by CustomWeather, © 2014

Note: Actual official high and low records may vary slightly from our data, if they occured in-between our weather recording intervals... More about our weather records

Advertising

Bielefeld weather history for previous 24 hours

 ConditionsComfort  
Time TempWeatherWind HumidityBarometerVisibility
4:00 AM
Aug 1
66 °FOvercast.6 mph63%29.92 "Hg13 mi
3:00 AM65 °FPassing clouds.6 mph64%29.93 "Hg14 mi
2:00 AM65 °FClear.6 mph63%29.93 "Hg14 mi
1:00 AM63 °FClear.5 mph72%29.95 "Hg14 mi
12:00 AM62 °FPassing clouds.2 mph76%29.95 "Hg11 mi
11:00 PM
Jul 31
61 °FClear.1 mph81%29.95 "Hg9 mi
10:00 PM62 °FClear.1 mph81%29.96 "Hg9 mi
9:00 PM68 °FSunny.1 mph70%29.94 "Hg11 mi
8:00 PM74 °FSunny.2 mph45%29.93 "Hg13 mi
7:00 PM76 °FSunny.2 mph39%29.93 "Hg15 mi
6:00 PM76 °FSunny.2 mph41%29.94 "Hg12 mi
5:00 PM75 °FSunny.1 mph41%29.95 "Hg11 mi
4:00 PM75 °FSunny.2 mph42%29.96 "Hg11 mi
3:00 PM73 °FPassing clouds.2 mph51%29.97 "Hg9 mi
2:00 PM72 °FSunny.2 mph53%29.98 "Hg7 mi
1:00 PM70 °FSunny.2 mph57%29.99 "Hg7 mi
12:00 PM68 °FPassing clouds.3 mph67%30.01 "Hg8 mi
11:00 AM67 °FPartly sunny.3 mph68%30.01 "Hg9 mi
10:00 AM63 °FOvercast.2 mph77%30.02 "Hg11 mi
9:00 AM62 °FOvercast.1 mph81%30.01 "Hg9 mi
8:00 AM60 °FPassing clouds.2 mph90%30.01 "Hg5 mi
7:00 AM60 °FFog.2 mph95%30.00 "Hg3 mi
6:00 AM59 °FFog.1 mph94%29.99 "Hg4 mi
5:00 AM60 °FOvercast.1 mph92%29.98 "Hg6 mi
Weather by CustomWeather, © 2014

See weather overviewHow to use our weather pages